Weather reports worldwide

Advertisment
Odiham, United Kingdom (3761): temperature & dewpoint: 04.04.2020 18:00:00 - 10.04.2020 18:00:00 (BST)Odiham, United Kingdom (3761): temperature -20cm & temperature -100cm: 04.04.2020 18:00:00 - 10.04.2020 18:00:00 (BST)Odiham, United Kingdom (3761): wind speed & gusts: 04.04.2020 18:00:00 - 10.04.2020 18:00:00 (BST)Odiham, United Kingdom (3761): wind direction: 04.04.2020 18:00:00 - 10.04.2020 18:00:00 (BST)Odiham, United Kingdom (3761): reduced air pressure: 04.04.2020 18:00:00 - 10.04.2020 18:00:00 (BST)Odiham, United Kingdom (3761): visibility: 04.04.2020 18:00:00 - 10.04.2020 18:00:00 (BST)Odiham, United Kingdom (3761): sunshine duration: 04.04.2020 18:00:00 - 10.04.2020 18:00:00 (BST)Odiham, United Kingdom (3761): precipitation: 04.04.2020 18:00:00 - 10.04.2020 18:00:00 (BST)
Date & Time tt [°C] td [°C] tt -20cm [°C] tt -100cm [°C] ff [km/h] ff [kn] fx [km/h] fx [kn] dd ppp [hPa] vv [km] sd [min] rr [mm]
10.04.2020 18:00:00 22,0 7,0 - - 15 8 - - ESE 1022,0 10 60 0,0
10.04.2020 17:00:00 22,6 6,4 - - 13 7 - - ESE 1022,1 21 60 0,0
10.04.2020 16:00:00 23,1 7,0 - - 16 9 - - SE 1022,1 10 60 0,0
10.04.2020 15:00:00 23,1 7,8 - - 15 8 - - ESE 1022,6 10 60 0,0
10.04.2020 14:00:00 22,4 8,5 - - 15 8 - - E 1023,1 10 60 0,0
10.04.2020 13:00:00 21,4 8,2 - - 21 11 - - ESE 1023,9 17 60 0,0
10.04.2020 12:00:00 20,6 9,4 - - 21 11 - - ESE 1024,2 14 60 0,0
10.04.2020 11:00:00 16,9 9,0 - - 13 7 - - ENE 1024,8 10 60 0,0
10.04.2020 10:00:00 14,5 7,9 9,9 8,7 15 8 - - E 1025,0 10 60 0,0
10.04.2020 09:00:00 11,8 8,3 - - 8 4 - - ENE 1025,2 8 60 0,0
10.04.2020 08:00:00 9,1 7,0 - - 5 3 - - ENE 1025,5 5 30 0,0
10.04.2020 07:00:00 7,5 5,8 - - 9 5 - - ENE 1025,3 5 0 0,0
10.04.2020 06:00:00 7,0 5,0 - - 8 4 - - ENE 1025,2 6 0 0,0
10.04.2020 05:00:00 8,5 5,8 - - 5 3 - - ENE 1025,0 8 0 0,0
10.04.2020 04:00:00 7,8 4,5 - - 8 4 - - ENE 1025,2 9 0 0,0
10.04.2020 03:00:00 9,9 5,8 - - 5 3 - - ENE 1025,2 9 0 0,0
10.04.2020 02:00:00 9,5 5,4 - - 5 3 - - E 1025,4 9 0 0,0
10.04.2020 01:00:00 9,7 4,4 - - 5 3 - - E 1025,7 10 - 0,0
10.04.2020 00:00:00 11,7 6,3 - - 5 3 - - NE 1025,6 10 0 0,0
09.04.2020 23:00:00 13,3 6,3 - - 13 7 - - E 1025,4 14 0 0,0
09.04.2020 22:00:00 14,5 7,2 - - 15 8 - - E 1025,2 13 0 0,0
09.04.2020 21:00:00 16,3 8,3 - - 13 7 - - ENE 1024,7 10 0 0,0
09.04.2020 20:00:00 18,5 8,9 - - 16 9 - - ENE 1023,9 10 6 0,0
09.04.2020 19:00:00 20,8 9,6 - - 9 5 - - ENE 1023,1 10 54 0,0
09.04.2020 18:00:00 22,5 6,6 - - 11 6 - - SE 1022,9 10 60 0,0
09.04.2020 17:00:00 22,9 5,8 - - 11 6 - - ESE 1022,9 10 60 0,0
09.04.2020 16:00:00 23,5 7,8 - - 8 4 - - SSE 1023,1 10 60 0,0
09.04.2020 15:00:00 23,1 7,8 - - 9 5 - - ESE 1023,6 10 60 0,0
09.04.2020 14:00:00 22,3 8,6 - - 13 7 - - ENE 1023,9 18 60 0,0
09.04.2020 13:00:00 21,5 7,3 - - 15 8 - - E 1024,3 10 60 0,0
09.04.2020 12:00:00 19,8 9,4 - - 15 8 - - ENE 1024,6 10 60 0,0
09.04.2020 11:00:00 17,6 10,4 - - 8 4 - - ENE 1025,0 8 60 0,0
09.04.2020 10:00:00 14,0 10,0 9,5 8,4 4 2 - - NNE 1025,1 6 60 0,0
09.04.2020 09:00:00 11,5 9,2 - - 4 2 - - NE 1025,0 5 60 0,0
09.04.2020 08:00:00 8,9 8,1 - - 4 2 - - N 1024,8 2,3 42 0,0
09.04.2020 07:00:00 6,1 5,4 - - 4 2 - - NNE 1024,5 4,0 0 0,0
09.04.2020 06:00:00 6,4 5,8 - - 5 3 - - NE 1024,1 4,0 0 0,0
09.04.2020 05:00:00 5,1 3,9 - - 4 2 - - E 1024,1 4,2 0 0,0
09.04.2020 04:00:00 6,4 5,2 - - 4 2 - - NNE 1024,1 0,6 0 0,0
09.04.2020 03:00:00 8,7 7,7 - - 2 1 - - W 1023,9 5 0 0,0
09.04.2020 02:00:00 8,2 6,5 - - 0 0 - - N 1024,1 6 0 0,0
09.04.2020 01:00:00 9,4 6,8 - - 2 1 - - E 1024,2 6 - 0,0
09.04.2020 00:00:00 9,7 6,8 - - 4 2 - - WSW 1024,3 9 0 0,0
08.04.2020 23:00:00 10,9 6,6 - - 5 3 - - W 1024,2 10 0 0,0
08.04.2020 22:00:00 12,6 8,0 - - 4 2 - - WSW 1023,9 10 0 0,0
08.04.2020 21:00:00 14,8 8,5 - - 5 3 - - ENE 1023,5 10 0 0,0
08.04.2020 20:00:00 16,8 8,3 - - 8 4 - - S 1022,9 10 18 0,0
08.04.2020 19:00:00 19,9 9,1 - - 5 3 - - SSW 1022,5 10 60 0,0
08.04.2020 18:00:00 21,2 8,7 - - 4 2 - - SW 1022,4 10 60 0,0
08.04.2020 17:00:00 21,5 9,1 - - 5 3 - - ESE 1022,5 10 60 0,0
08.04.2020 16:00:00 20,6 9,1 - - 9 5 - - E 1022,8 10 48 0,0
08.04.2020 15:00:00 19,9 9,3 - - 9 5 - - E 1023,4 12 18 0,0
08.04.2020 14:00:00 19,6 9,0 - - 9 5 - - ENE 1023,7 10 18 0,0
08.04.2020 13:00:00 18,1 9,0 - - 8 4 - - ENE 1024,3 10 0 0,0
08.04.2020 12:00:00 17,0 8,6 - - 13 7 - - ENE 1024,6 10 0 0,0
08.04.2020 11:00:00 14,6 8,0 - - 8 4 - - NNE 1024,9 10 0 0,0
08.04.2020 10:00:00 12,1 7,7 9,0 8,2 5 3 - - NNE 1025,0 10 0 0,0
08.04.2020 09:00:00 10,4 6,3 - - 4 2 - - N 1025,2 10 0 0,0
08.04.2020 08:00:00 9,1 6,2 - - 2 1 - - NW 1025,3 10 0 0,0
08.04.2020 07:00:00 8,2 5,6 - - 2 1 - - NW 1025,2 10 0 0,0
08.04.2020 06:00:00 8,0 5,6 - - 4 2 - - WNW 1025,2 11 0 0,0
08.04.2020 05:00:00 8,3 5,3 - - 4 2 - - NW 1025,3 10 0 0,0
08.04.2020 04:00:00 7,9 4,9 - - 4 2 - - W 1025,8 18 0 0,0
08.04.2020 03:00:00 7,9 4,4 - - 2 1 - - N 1026,3 21 0 0,0
08.04.2020 02:00:00 8,4 4,4 - - 2 1 - - SE 1026,7 22 0 0,0
08.04.2020 01:00:00 8,1 4,1 - - 2 1 - - ESE 1027,1 24 - 0,0
08.04.2020 00:00:00 8,5 4,0 - - 5 3 - - NW 1027,2 10 0 0,0
07.04.2020 23:00:00 9,0 4,7 - - 2 1 - - S 1027,3 10 0 0,0
07.04.2020 22:00:00 11,4 4,9 - - 2 1 - - S 1027,4 10 0 0,0
07.04.2020 21:00:00 12,1 4,7 - - 4 2 - - SSW 1027,3 10 0 0,0
07.04.2020 20:00:00 12,7 5,0 - - 5 3 - - S 1027,1 10 0 0,0
07.04.2020 19:00:00 14,9 6,0 - - 11 6 - - S 1026,8 10 0 0,0
07.04.2020 18:00:00 16,5 5,5 - - 15 8 - - S 1026,7 10 0 0,0
07.04.2020 17:00:00 17,7 5,0 - - 8 4 - - SSE 1026,9 10 30 0,0
07.04.2020 16:00:00 17,8 4,0 - - 5 3 - - ESE 1027,3 10 60 0,0
07.04.2020 15:00:00 18,0 3,8 - - 15 8 - - ESE 1027,7 10 60 0,0
07.04.2020 14:00:00 17,1 4,2 - - 18 10 - - E 1028,3 10 60 0,0
07.04.2020 13:00:00 17,1 4,4 - - 21 11 - - SE 1028,8 10 60 0,0
07.04.2020 12:00:00 16,0 4,5 - - 21 11 - - ESE 1029,3 10 60 0,0
07.04.2020 11:00:00 14,0 5,1 - - 8 4 - - E 1029,9 10 60 0,0
07.04.2020 10:00:00 12,0 6,0 8,7 8,0 8 4 - - E 1030,2 10 60 0,0
07.04.2020 09:00:00 8,7 4,3 - - 4 2 - - E 1030,3 10 60 0,0
07.04.2020 08:00:00 4,9 3,0 - - 2 1 - - NW 1030,2 10 42 0,0
07.04.2020 07:00:00 2,7 0,6 - - 2 1 - - SW 1030,0 21 0 0,0
07.04.2020 06:00:00 3,0 1,0 - - 4 2 - - SW 1029,8 23 0 0,0
07.04.2020 05:00:00 3,8 1,5 - - 5 3 - - SW 1029,7 24 0 0,0
07.04.2020 04:00:00 3,1 0,7 - - 2 1 - - W 1029,3 10 0 0,0
07.04.2020 03:00:00 3,6 1,0 - - 2 1 - - NE 1028,7 28 0 0,0
07.04.2020 02:00:00 4,5 1,8 - - 4 2 - - SW 1028,5 10 0 0,0
07.04.2020 01:00:00 7,8 3,1 - - 8 4 - - W 1027,8 10 - 0,0
07.04.2020 00:00:00 7,6 3,2 - - 9 5 - - SW 1027,3 10 0 0,0
06.04.2020 23:00:00 8,6 4,2 - - 8 4 - - WSW 1026,6 10 0 0,0
06.04.2020 22:00:00 10,2 4,7 - - 8 4 - - WSW 1026,0 10 0 0,0
06.04.2020 21:00:00 11,6 4,6 - - 5 3 - - W 1025,0 10 0 0,0
06.04.2020 20:00:00 13,5 5,3 - - 9 5 - - WSW 1023,9 10 6 0,0
06.04.2020 19:00:00 14,1 5,1 - - 13 7 - - WSW 1022,7 30 0 0,0
06.04.2020 18:00:00 14,5 5,0 - - 15 8 - - W 1021,6 10 0 0,0
06.04.2020 17:00:00 15,1 5,8 - - 21 11 - - W 1020,7 10 6 0,0
06.04.2020 16:00:00 15,2 3,9 - - 16 9 - - WSW 1020,0 10 12 0,0
06.04.2020 15:00:00 15,7 3,3 - - 21 11 - - SW 1019,4 10 30 0,0
06.04.2020 14:00:00 15,2 3,0 - - 21 11 - - SW 1018,8 10 36 0,0
06.04.2020 13:00:00 14,4 4,6 - - 21 11 - - W 1018,1 10 54 0,0
06.04.2020 12:00:00 14,5 7,4 - - 18 10 - - SW 1017,3 10 60 0,0
06.04.2020 11:00:00 13,4 9,0 - - 16 9 - - W 1016,4 10 48 0,0
06.04.2020 10:00:00 11,0 8,8 8,4 7,9 24 13 - - W 1015,5 10 6 0,2
06.04.2020 09:00:00 9,6 9,1 - - 11 6 - - WSW 1014,5 7 0 0,4
06.04.2020 08:00:00 11,1 10,3 - - 18 10 - - SSW 1013,0 4,0 0 0,0
06.04.2020 07:00:00 11,4 10,8 - - 16 9 - - SSW 1011,6 10 0 0,4
06.04.2020 06:00:00 11,8 11,0 - - 18 10 - - S 1010,8 6 0 0,4
06.04.2020 05:00:00 12,4 10,3 - - 22 12 - - S 1010,5 15 0 0,0
06.04.2020 04:00:00 12,2 8,3 - - 15 8 - - S 1009,8 10 0 0,0
06.04.2020 03:00:00 12,5 8,6 - - 16 9 - - S 1009,9 30 0 0,0
06.04.2020 02:00:00 13,3 7,6 - - 22 12 - - SSW 1009,9 30 0 0,0
06.04.2020 01:00:00 13,8 6,9 - - 24 13 - - S 1010,0 10 - 0,0
06.04.2020 00:00:00 11,7 6,7 - - 13 7 - - SSE 1010,0 10 0 0,0
05.04.2020 23:00:00 13,4 6,4 - - 21 11 - - SSE 1009,9 10 0 0,0
05.04.2020 22:00:00 13,6 5,0 - - 21 11 - - SSE 1010,0 30 0 0,0
05.04.2020 21:00:00 14,5 3,8 - - 21 11 - - SE 1009,9 35 0 0,0
05.04.2020 20:00:00 15,0 3,5 - - 16 9 - - SE 1009,9 35 12 0,0
05.04.2020 19:00:00 17,4 4,1 - - 16 9 - - SE 1010,0 30 48 0,0
05.04.2020 18:00:00 18,9 4,1 - - 28 15 46 25 SE 1009,9 10 60 0,0
05.04.2020 17:00:00 18,3 4,4 - - 31 17 - - SE 1010,4 28 60 0,0
05.04.2020 16:00:00 18,4 4,4 - - 29 16 - - SSE 1010,9 28 60 0,0
05.04.2020 15:00:00 19,9 5,0 - - 28 15 46 25 SSE 1011,2 27 60 0,0
05.04.2020 14:00:00 19,2 4,3 - - 31 17 - - SSE 1011,8 26 60 0,0
05.04.2020 13:00:00 18,7 5,6 - - 26 14 - - SE 1012,2 28 60 0,0
05.04.2020 12:00:00 17,1 5,7 - - 26 14 - - ESE 1013,0 10 60 0,0
05.04.2020 11:00:00 15,6 6,2 - - 22 12 - - SE 1013,7 10 60 0,0
05.04.2020 10:00:00 13,2 5,0 7,9 7,7 22 12 - - SE 1014,1 10 60 0,0
05.04.2020 09:00:00 9,7 4,5 - - 16 9 - - ESE 1014,8 10 60 0,0
05.04.2020 08:00:00 7,2 3,8 - - 11 6 - - ENE 1015,2 18 60 0,0
05.04.2020 07:00:00 4,7 1,8 - - 9 5 - - ENE 1015,5 10 6 0,0
05.04.2020 06:00:00 4,7 2,1 - - 8 4 - - E 1015,6 14 0 0,0
05.04.2020 05:00:00 4,4 2,1 - - 9 5 - - ENE 1015,9 12 0 0,0
05.04.2020 04:00:00 4,9 2,6 - - 9 5 - - NE 1016,6 10 0 0,0
05.04.2020 03:00:00 5,5 2,7 - - 5 3 - - NE 1017,1 10 0 0,0
05.04.2020 02:00:00 5,1 2,0 - - 11 6 - - E 1017,5 10 0 0,0
05.04.2020 01:00:00 6,6 3,0 - - 11 6 - - ESE 1018,2 16 - 0,0
05.04.2020 00:00:00 6,9 2,9 - - 15 8 - - ESE 1018,5 10 0 0,0
04.04.2020 23:00:00 7,1 2,6 - - 9 5 - - ESE 1018,5 24 0 0,0
04.04.2020 22:00:00 6,7 1,6 - - 11 6 - - ESE 1018,9 28 0 0,0
04.04.2020 21:00:00 7,3 1,5 - - 9 5 - - ESE 1018,8 28 0 0,0
04.04.2020 20:00:00 8,1 0,7 - - 11 6 - - ESE 1018,7 30 12 0,0
04.04.2020 19:00:00 12,3 0,9 - - 15 8 - - SE 1018,5 40 60 0,0
04.04.2020 18:00:00 13,8 1,6 - - 18 10 - - SE 1018,4 10 60 0,0

tt = temperature
td = dewpoint
tt -20cm = temperature -20cm
tt -100cm = temperature -100cm
ff = wind speed
fx = gusts
dd = wind direction
ppp = reduced air pressure
vv = visibility
sd = sunshine duration
rr = precipitation

Next stations